CW9352 Weather Reports


Display with metric or nautical units.
time (UTC)temp
F
wind
direction
speed
MPH
gust
MPH
rain 1hr
in
rain 24hr
in
rain mn
in
humidity
%
barometer
mb
20260903183517 88 155 2.0 6.0 0.00 0.01 0.00 79 1016.8
20260903182517 88 130 2.0 6.0 0.00 0.01 0.00 79 1016.9
20260903181517 89 109 3.0 7.0 0.00 0.01 0.00 78 1017.0
20260903180517 89 170 2.0 6.0 0.00 0.01 0.00 77 1017.1
20260903175517 89 73 1.0 5.0 0.00 0.01 0.00 74 1017.1
20260903174517 89 93 1.0 6.0 0.00 0.01 0.00 72 1017.2
20260903173517 89 72 2.0 5.0 0.00 0.01 0.00 73 1017.3
20260903172519 89 70 4.0 9.0 0.00 0.01 0.00 72 1017.3
20260903172017 89 89 1.0 4.0 0.00 0.01 0.00 71 1017.6
20260903171017 90 92 0.0 5.0 0.00 0.01 0.00 70 1017.6
20260903170037 90 85 1.0 7.0 0.00 0.01 0.00 70 1017.6
20260903165017 90 95 0.0 5.0 0.00 0.01 0.00 70 1017.7
20260903164017 90 65 0.0 7.0 0.00 0.01 0.00 71 1017.7
20260903163017 90 93 2.0 7.0 0.00 0.01 0.00 71 1017.8
20260903162017 89 62 1.0 4.0 0.00 0.01 0.00 72 1017.7
20260903161058 89 72 1.0 5.0 0.00 0.01 0.00 72 1017.6
20260903160017 89 82 1.0 6.0 0.00 0.01 0.00 71 1017.6
20260903155017 89 54 1.0 6.0 0.00 0.01 0.00 71 1017.6
20260903154016 90 60 0.0 2.0 0.00 0.01 0.00 71 1017.4
20260903153017 90 78 2.0 7.0 0.00 0.01 0.00 70 1017.3
20260903152017 91 92 1.0 7.0 0.00 0.01 0.00 71 1017.2
20260903150516 89 0.0 2.0 0.00 0.01 0.00 75 1017.2
20260903145517 88 39 0.0 4.0 0.00 0.01 0.00 76 1017.2
20260903144516 88 57 0.0 3.0 0.00 0.01 0.00 75 1017.2
20260903143517 89 71 0.0 4.0 0.00 0.01 0.00 75 1017.4
20260903142517 88 57 0.0 2.0 0.00 0.01 0.00 79 1017.3
20260903141517 86 49 0.0 5.0 0.00 0.01 0.00 81 1017.3
20260903140517 85 55 0.0 2.0 0.00 0.01 0.00 85 1017.2
20260903135516 83 57 0.0 4.0 0.00 0.01 0.00 88 1017.3
20260903134517 82 45 0.0 3.0 0.00 0.01 0.00 90 1017.4
20260903133516 81 59 0.0 3.0 0.00 0.01 0.00 91 1017.5
20260903132518 80 62 0.0 2.0 0.00 0.01 0.00 92 1017.5
20260903131517 80 75 0.0 3.0 0.00 0.01 0.00 93 1017.5
20260903130516 79 80 0.0 2.0 0.00 0.01 0.00 94 1017.3
20260903125517 79 42 0.0 1.0 0.00 0.01 0.00 94 1017.2
20260903124537 79 37 0.0 2.0 0.00 0.01 0.00 95 1017.2
20260903123516 79 55 0.0 2.0 0.00 0.01 0.00 95 1017.2
20260903122516 78 54 0.0 2.0 0.00 0.01 0.00 96 1017.2
20260903121536 78 44 0.0 1.0 0.00 0.01 0.00 97 1017.2
20260903120516 78 41 0.0 1.0 0.00 0.01 0.00 97 1017.2
20260903115516 78 41 0.0 1.0 0.00 0.01 0.00 97 1017.0
20260903114517 78 40 0.0 1.0 0.00 0.01 0.00 97 1016.8
20260903113517 78 0.0 0.0 0.00 0.01 0.00 97 1016.6
20260903112516 77 44 0.0 1.0 0.00 0.01 0.00 98 1016.6
20260903111516 77 0.0 0.0 0.00 0.01 0.00 98 1016.6
20260903110537 78 46 0.0 1.0 0.00 0.01 0.00 98 1016.7
20260903105516 78 0.0 0.0 0.00 0.01 0.00 98 1016.6
20260903104516 78 0.0 0.0 0.00 0.01 0.00 98 1016.6
20260903103516 78 0.0 0.0 0.00 0.01 0.00 98 1016.5
20260903102516 78 0.0 0.0 0.00 0.01 0.00 98 1016.4
20260903102016 78 0.0 0.0 0.00 0.01 0.00 98 1016.3
20260903101016 78 0.0 0.0 0.00 0.01 0.00 98 1016.3
20260903100016 78 47 0.0 1.0 0.00 0.01 0.00 98 1016.4
20260903095016 78 0.0 0.0 0.00 0.01 0.00 98 1016.4
20260903083016 78 0.0 0.0 0.00 0.01 0.00 98 1016.5
20260903082016 78 0.0 0.0 0.00 0.01 0.00 98 1016.4
20260903081056 78 0.0 0.0 0.00 0.01 0.00 98 1016.3
20260903080016 78 0.0 0.0 0.00 0.01 0.00 97 1016.4
20260903075016 79 0.0 0.0 0.00 0.01 0.00 97 1016.4
20260903074016 79 0.0 0.0 0.00 0.01 0.00 97 1016.4
20260903073016 79 0.0 0.0 0.00 0.01 0.00 97 1016.5
20260903072017 79 0.0 0.0 0.00 0.01 0.00 97 1016.7
20260903071016 79 0.0 0.0 0.00 0.01 0.00 97 1016.8
20260903070016 79 0.0 0.0 0.00 0.01 0.00 97 1016.9
20260903065016 79 0.0 0.0 0.00 0.01 0.00 97 1016.8
20260903064036 79 0.0 0.0 0.00 0.01 0.00 97 1017.0
20260903063016 79 0.0 0.0 0.00 0.01 0.00 97 1017.0
20260903062016 79 0.0 0.0 0.00 0.01 0.00 97 1017.1
20260903061016 79 0.0 0.0 0.00 0.01 0.00 97 1017.2
20260903060016 79 0.0 0.0 0.00 0.01 0.00 97 1017.3
20260903055016 79 0.0 0.0 0.00 0.01 0.00 97 1017.3
20260903054016 79 0.0 0.0 0.00 0.01 0.00 97 1017.3
20260903053016 79 0.0 0.0 0.00 0.01 0.00 96 1017.3
20260903052016 79 0.0 0.0 0.00 0.01 0.00 96 1017.3
20260903051016 79 0.0 0.0 0.00 0.01 0.00 96 1017.3
20260903050016 79 0.0 0.0 0.00 0.01 0.00 96 1017.2
20260903045016 79 0.0 0.0 0.00 0.01 0.01 96 1017.0
20260903044036 79 0.0 0.0 0.00 0.01 0.01 95 1017.0
20260903043036 79 0.0 0.0 0.00 0.01 0.01 95 1017.1
20260903042016 79 0.0 0.0 0.00 0.01 0.01 95 1017.1
20260903041016 80 0.0 0.0 0.00 0.01 0.01 95 1017.1
20260903040017 80 0.0 0.0 0.00 0.01 0.01 95 1017.1
20260903035016 80 0.0 0.0 0.00 0.01 0.01 94 1017.2
20260903034016 80 0.0 0.0 0.00 0.01 0.01 94 1017.3
20260903033016 80 0.0 0.0 0.00 0.01 0.01 95 1017.4
20260903032016 80 0.0 0.0 0.00 0.01 0.01 94 1017.3
20260903031016 80 0.0 0.0 0.00 0.01 0.01 94 1017.2
20260903030016 80 0.0 0.0 0.00 0.01 0.01 94 1017.4
20260903025015 80 0.0 0.0 0.00 0.01 0.01 93 1017.4
20260903024016 80 0.0 0.0 0.00 0.01 0.01 93 1017.4
20260903023016 80 0.0 0.0 0.00 0.01 0.01 93 1017.4
20260903022016 80 0.0 0.0 0.00 0.01 0.01 92 1017.3
20260903021016 81 0.0 0.0 0.00 0.01 0.01 92 1017.2
20260903020016 81 0.0 0.0 0.00 0.01 0.01 91 1017.2
20260903015016 81 0.0 0.0 0.00 0.01 0.01 90 1017.0
20260903014015 82 0.0 0.0 0.00 0.01 0.01 90 1017.1
20260903013015 82 0.0 0.0 0.00 0.01 0.01 89 1016.9
20260903012036 82 0.0 0.0 0.00 0.01 0.01 88 1016.9
20260903011015 83 0.0 0.0 0.00 0.01 0.01 88 1016.9
20260903005516 84 0.0 0.0 0.00 0.01 0.01 85 1016.8
20260903004516 84 0.0 0.0 0.00 0.01 0.01 84 1016.8
20260903003515 85 0.0 1.0 0.00 0.01 0.01 83 1016.8
20260903002516 85 293 0.0 0.0 0.00 0.01 0.01 83 1016.7
20260903001537 85 0.0 0.0 0.00 0.01 0.01 83 1016.7
20260903000516 85 308 0.0 1.0 0.00 0.01 0.01 82 1016.6
20260902235535 86 300 0.0 1.0 0.00 0.01 0.01 81 1016.6
20260902234535 86 285 0.0 1.0 0.00 0.01 0.01 80 1016.5
20260902233515 87 286 0.0 2.0 0.00 0.01 0.01 80 1016.4
20260902232517 87 291 0.0 2.0 0.00 0.01 0.01 79 1016.4
20260902230516 88 297 0.0 3.0 0.00 0.01 0.01 79 1016.2
20260902225515 88 294 0.0 2.0 0.00 0.01 0.01 78 1016.3
20260902224536 89 283 0.0 2.0 0.00 0.01 0.01 77 1016.4
20260902223516 90 288 0.0 1.0 0.00 0.01 0.01 75 1016.4
20260902222515 90 159 0.0 1.0 0.00 0.01 0.01 75 1016.4
20260902221535 90 154 0.0 1.0 0.00 0.01 0.01 75 1016.3
20260902220515 90 164 0.0 2.0 0.00 0.01 0.01 74 1016.5
20260902215535 90 209 1.0 2.0 0.00 0.01 0.01 74 1016.6
20260902214555 90 206 0.0 1.0 0.00 0.01 0.01 75 1016.7
20260902213515 90 115 0.0 4.0 0.00 0.01 0.01 76 1016.8
20260902212515 88 260 0.0 1.0 0.00 0.01 0.01 77 1016.9
20260902211515 85 71 0.0 2.0 0.00 0.01 0.01 79 1017.0
20260902210515 83 0.0 1.0 0.01 0.01 0.01 84 1017.1
20260902205515 81 0.0 0.0 0.01 0.01 0.01 87 1017.2
20260902204515 80 53 0.0 1.0 0.01 0.01 0.01 87 1017.4
20260902203515 80 41 0.0 1.0 0.01 0.01 0.01 85 1017.5
20260902202515 81 0.0 0.0 0.01 0.01 0.01 83 1017.6
20260902202015 81 0.0 5.0 0.01 0.01 0.01 82 1017.9
20260902201015 83 343 1.0 3.0 0.01 0.01 0.01 78 1018.4
20260902200035 87 33 0.0 4.0 0.00 0.00 0.00 74 1018.5
20260902195015 90 296 0.0 1.0 0.00 0.00 0.00 73 1018.2
20260902194015 91 284 0.0 4.0 0.00 0.00 0.00 70 1017.8
20260902193035 93 296 1.0 5.0 0.00 0.00 0.00 68 1017.7
20260902192015 93 261 1.0 4.0 0.00 0.00 0.00 68 1017.8
20260902191015 93 275 0.0 2.0 0.00 0.00 0.00 68 1018.2
20260902190015 91 321 0.0 4.0 0.00 0.00 0.00 70 1018.3
20260902185015 92 0.0 1.0 0.00 0.00 0.00 67 1018.4
20260902184015 93 0.0 0.0 0.00 0.00 0.00 64 1018.3